Погода в Большом Каринском

Россия / Владимирская область     56°22′04″N   38°39′21″E
темп.,
°C
ветер,
м/с
пор.,
м/с
влажн.,
%
обл.,
%
осадки,
мм/ч
давл.,
гПа
погр.,
м
9 мая, вс
вс900:00+8ссз2597100 6.3 1001227
03:00+7сз3698100 6.6 1002402
06:00+5сз61295100 0.2 1004672
09:00+2сз61498100 4.9 1008592
12:00+3ссз51397100 3.6 1011794
15:00+7с51285100 5.4 10131472
18:00+8с497783 0.5 1015978
21:00+4сз238772 0.6 101940
10 мая, пн
пн1000:00+3сз312872 0.0 1022297
03:00+1ссз39910 0.0 1025175
06:00+2ссз27870 0.0 1027176
09:00+8с25625 0.0 1028623
12:00+12ссв34465 0.0 10291414
15:00+14ссв34420 0.0 10281447
18:00+13всв24543 0.0 1029594
21:00+6всв22755 0.0 103014
11 мая, вт
вт1100:00+5св227637 0.0 103113
03:00+4св22765 0.0 103134
06:00+6всв267348 0.0 1032139
09:00+12всв365059 0.0 1032672
12:00+16всв464198 0.0 10311060
15:00+17в4541100 0.0 10301168
18:00+15всв3756100 0.0 1029564
21:00+10всв347653 0.0 103067
12 мая, ср
ср1200:00+7всв37780 0.0 1030111
03:00+6всв37790 0.0 1029126
06:00+8всв310775 0.0 1028239
09:00+15всв59614 0.0 1027523
12:00+20в695548 0.0 10261197
15:00+19вюв4962100 0.1 1025814
18:00+16юв268078 0.0 1025172
21:00+14всв238786 0.0 102565
13 мая, чт
чт1300:00+14в3119182 0.0 1024308
03:00+14в31189100 0.0 1023345
06:00+14всв31192100 0.3 1023418
09:00+18в5116898 0.3 1022811
12:00+22вюв6114451 0.0 10201823
15:00+17юв61069100 0.4 10201559
18:00+16юв5118053 0.3 1020936
21:00+13юв389560 0.3 1020254